Location: Harwich
(41.7160°N, 69.9939°W)
Time: 18:18:23
(UTC+01:00)

Courier 1B - All Passes

Search period start: 07 February 2023 00:00
Search period end: 17 February 2023 00:00
Orbit: 962 x 1209 km, 28.3° (Epoch: 06 February)

Date Brightness Start Highest point End Pass type
(mag) Time Alt. Az. Time Alt. Az. Time Alt. Az.
07 Feb - 16:18:03 10° SSW 16:23:01 20° SSE 16:27:48 10° ESE daylight
07 Feb - 18:10:41 10° SW 18:16:11 26° S 18:21:27 10° SE daylight
07 Feb - 20:04:42 10° WSW 20:09:14 20° SSW 20:13:42 10° SSE daylight
08 Feb - 15:24:49 10° SSW 15:29:25 18° SSE 15:33:52 10° ESE daylight
08 Feb - 17:16:59 10° SW 17:22:35 26° S 17:27:57 10° ESE daylight
08 Feb - 19:10:40 10° WSW 19:15:43 22° SSW 19:20:37 10° SE daylight
08 Feb - 21:06:54 10° SW 21:08:37 11° SSW 21:10:18 10° S daylight
09 Feb - 14:31:50 10° SSW 14:35:49 15° SSE 14:39:41 10° SE daylight
09 Feb - 16:23:20 10° SW 16:28:58 25° S 16:34:21 10° ESE daylight
09 Feb - 18:16:44 10° WSW 18:22:10 25° S 18:27:23 10° SE daylight
09 Feb - 20:11:44 10° SW 20:15:08 14° SSW 20:18:29 10° S daylight
10 Feb - 13:39:22 10° S 13:42:12 12° SSE 13:45:00 10° SE daylight
10 Feb - 15:29:47 10° SW 15:35:20 23° S 15:40:40 10° ESE daylight
10 Feb - 17:22:51 10° WSW 17:28:35 26° S 17:34:02 10° SE daylight
10 Feb - 19:17:17 10° WSW 19:21:38 18° SSW 19:25:53 10° SSE daylight
11 Feb - 14:36:21 10° SSW 14:41:42 21° SSE 14:46:51 10° ESE daylight
11 Feb - 16:29:02 10° SW 16:34:58 27° S 16:40:36 10° SE daylight
11 Feb - 18:23:05 10° WSW 18:28:07 21° SSW 18:32:57 10° SSE daylight
12 Feb - 13:43:05 10° SSW 13:48:03 19° SSE 13:52:51 10° ESE daylight
12 Feb - 15:35:16 10° SW 15:41:18 27° S 15:47:03 10° ESE daylight
12 Feb - 17:29:00 10° WSW 17:34:32 24° S 17:39:50 10° SE daylight
12 Feb - 19:24:47 10° SW 19:27:29 12° SSW 19:30:08 10° S daylight
13 Feb - 12:50:08 10° SSW 12:54:24 16° SSE 12:58:34 10° SE daylight
13 Feb - 14:41:36 10° SW 14:47:37 26° S 14:53:24 10° ESE daylight
13 Feb - 16:35:01 10° WSW 16:40:55 26° S 16:46:33 10° SE daylight
13 Feb - 18:29:54 10° WSW 18:33:59 16° SSW 18:37:56 10° SSE daylight
14 Feb - 11:57:43 10° S 12:00:45 13° SSE 12:03:46 10° SE visible
14 Feb - 13:48:01 10° SW 13:53:56 24° SSE 13:59:38 10° ESE daylight
14 Feb - 15:41:05 10° WSW 15:47:16 28° S 15:53:09 10° SE daylight
14 Feb - 17:35:29 10° WSW 17:40:26 20° SSW 17:45:12 10° SSE daylight
15 Feb - 12:54:37 10° SSW 13:00:14 22° SSE 13:05:42 10° ESE daylight
15 Feb - 14:47:15 10° SW 14:53:34 29° S 14:59:38 10° ESE daylight
15 Feb - 16:41:15 10° WSW 16:46:50 23° SSW 16:52:11 10° SE daylight
15 Feb - 18:38:23 10° SW 18:39:45 11° SSW 18:41:07 10° SSW daylight
16 Feb - 12:01:26 10° SSW 12:06:33 19° SSE 12:11:35 10° ESE visible
16 Feb - 13:53:29 10° SW 13:59:51 28° S 14:05:59 10° ESE daylight
16 Feb - 15:47:10 10° WSW 15:53:12 26° S 15:58:58 10° SE daylight
16 Feb - 17:42:37 10° SW 17:46:15 14° SSW 17:49:47 10° S daylight
